Location: North Evanston
(42.0634°N, 87.6976°W)
Time: 14:06:24
(UTC+00:00)

Vanguard 2 - Pass Details

Date: 14 May 2026
Orbit: 553 x 2894 km, 32.9° (Epoch: 8 June)

Event Time Altitude Azimuth Distance (km) Brightness Sun altitude
Rises 05:52:10 0° 206° (SSW) 6,173 - -29.3°
Reaches altitude 10° 05:56:51 10° 196° (SSW) 5,402 - -29.3°
Exits shadow 06:09:12 29° 148° (SSE) 4,289 10.8 -29.1°
Maximum altitude 06:10:06 30° 144° (SE) 4,284 10.9 -29.1°
Drops below altitude 10° 06:23:20 10° 93° (E) 5,440 11.9 -28.7°
Sets 06:27:59 0° 83° (E) 6,227 12.4 -28.6°
